Location: *
(44.3526°S, 44.9014°W)
Time: 23:20:31
(UTC+00:00)

MOS 1-B Rocket - Pass Details

Date: 13 May 2025
Orbit: 891 x 1603 km, 99.0° (Epoch: 14 June)

Event Time Altitude Azimuth Distance (km) Brightness Sun altitude
Rises 20:43:43 0° 166° (SSE) 4,230 7.0 -10.8°
Reaches altitude 10° 20:46:34 10° 165° (SSE) 3,155 6.4 -11.3°
Maximum altitude 20:53:41 83° 77° (ENE) 1,078 4.2 -12.5°
Drops below altitude 10° 20:59:44 10° 347° (NNW) 2,701 6.7 -13.5°
Sets 21:02:01 0° 346° (NNW) 3,588 7.3 -13.9°
